Temperature
23 21 20 21 21 22 22 22 22 23 23 22 21 21 21 21 21 20 20 20 20 20 20 19 19 19 18 18 18 17 17 17 17 17 16 16 16 16 15 15 15 15 15 15
21 21 22 23 23 23 23 22 22 22 23 23 21 21 21 21 21 21 20 20 20 20 19 19 19 19 18 18 17 17 17 17 16 16 16 16 15 15 15 15 15 14 14 14
21 22 24 24 23 23 23 22 22 22 23 23 22 21 20 21 21 21 20 20 20 19 19 19 19 18 18 18 17 17 17 17 16 16 16 15 15 15 15 15 14 14 14 14
22 23 24 24 24 24 23 24 24 23 21 20 21 19 20 20 20 20 20 19 19 19 19 19 19 18 18 18 17 17 17 16 16 16 15 15 15 15 15 14 14 14 14 14
23 24 24 24 25 25 24 24 24 23 21 20 20 19 19 19 19 19 19 19 19 20 19 19 19 18 18 17 17 17 16 16 16 15 15 15 15 15 14 14 14 14 14 14
23 24 24 25 25 25 25 23 22 20 19 19 20 19 19 18 19 19 19 19 19 19 19 19 18 18 18 17 17 17 16 16 15 15 15 15 15 14 14 14 14 14 14 14
23 24 25 25 24 24 23 20 19 19 18 19 20 20 18 19 20 20 19 19 19 19 19 19 18 18 17 17 17 16 16 16 15 15 15 15 14 14 14 14 14 14 14 14
22 22 24 25 24 23 23 21 19 20 19 18 19 19 19 20 20 20 20 19 19 19 18 18 18 17 17 17 16 16 16 15 15 15 15 14 14 14 14 14 14 13 13 13
22 22 25 26 26 24 23 21 20 19 19 18 19 19 20 20 19 19 19 19 18 18 18 18 18 17 17 16 16 16 16 15 15 15 14 14 14 14 14 14 14 13 13 13
22 22 24 25 25 24 23 21 18 18 19 18 19 19 18 19 19 18 18 18 18 18 18 18 17 17 17 16 16 16 15 15 15 15 14 14 14 14 14 14 13 13 13 13
22 21 22 23 24 23 23 22 19 17 18 18 18 18 19 19 18 18 17 18 18 18 18 17 17 17 17 16 16 16 15 15 15 15 14 14 14 14 14 14 13 13 13 13
21 19 20 22 23 24 23 22 19 19 19 17 17 18 20 18 18 18 18 18 18 18 17 17 17 17 16 16 15 15 15 15 15 14 14 14 14 14 14 13 13 13 13 13
21 19 19 20 21 22 23 23 20 18 17 17 17 18 19 18 18 18 18 18 18 17 17 17 17 16 16 16 15 15 15 15 14 14 14 14 14 13 13 13 13 13 13 13
21 18 19 20 20 21 22 23 22 19 18 18 18 18 18 17 17 17 18 18 17 17 17 16 16 16 15 15 15 15 15 14 14 14 14 14 14 13 13 13 13 13 13 13
19 19 20 20 22 23 22 23 22 21 19 19 19 18 18 17 17 17 18 17 17 16 16 16 16 15 15 15 15 15 14 14 14 14 14 14 13 13 13 13 13 13 13 12
18 19 20 20 22 22 22 22 22 21 20 19 19 18 17 17 18 17 17 17 16 16 16 16 16 15 15 15 15 15 14 14 14 14 13 13 13 13 13 13 13 13 13 12
17 18 18 18 20 21 20 21 21 20 20 19 18 17 16 16 16 17 17 16 16 16 16 16 15 15 15 15 15 14 14 14 14 14 13 13 13 13 13 13 13 13 13 12
17 17 16 17 19 19 19 20 21 20 19 18 17 16 16 16 17 17 17 17 16 16 16 16 16 15 15 15 15 14 14 14 14 13 13 13 13 13 13 13 13 13 12 12
17 17 16 16 17 18 20 20 20 19 18 17 16 16 16 16 16 16 16 17 16 16 16 16 15 15 15 15 14 14 14 14 14 13 13 13 13 13 13 13 12 12 12 12
17 16 16 16 17 17 18 19 20 18 16 17 16 15 15 16 14 14 16 16 16 16 16 15 15 15 15 14 14 14 14 14 13 13 13 13 13 13 13 12 12 12 12 12
17 16 16 16 16 17 17 19 19 17 16 17 17 16 16 15 15 16 16 16 16 16 15 15 15 15 15 14 14 14 13 13 13 13 13 13 13 13 12 12 12 12 12 12
16 15 15 15 15 16 17 18 17 15 17 17 17 17 17 16 16 16 16 15 15 15 15 15 15 15 14 14 14 13 13 13 13 13 13 13 12 12 12 12 12 12 12 12
15 15 14 14 15 15 17 17 17 18 17 17 17 17 17 16 15 15 15 15 15 15 15 15 15 14 14 14 14 13 13 13 13 13 13 13 13 12 12 12 12 12 12 12
15 15 14 14 15 15 17 17 17 18 17 17 17 17 17 16 16 15 15 15 15 15 15 14 14 14 14 14 13 13 13 13 13 13 13 12 12 12 12 12 12 12 12 12
15 15 14 14 15 15 16 17 17 17 17 17 17 17 16 16 16 15 15 15 15 14 14 14 14 14 14 13 13 13 13 13 13 13 12 12 12 12 12 12 12 12 12 12
14 14 14 14 15 14 16 17 17 17 17 17 17 16 16 16 16 15 15 15 14 14 14 14 14 14 13 13 13 13 13 13 12 12 12 12 12 12 12 12 12 12 12 12
Wind_Speed
1 2 5 9 9 8 6 5 5 5 3 2 3 4 5 5 6 7 6 7 8 8 6 6 6 5 5 4 3 4 4 2 2 2 2 1 1 1 1 1 1 1 2 3
3 6 12 8 6 6 5 3 4 4 3 2 2 3 5 6 7 8 9 8 7 6 5 5 5 4 4 4 3 3 3 3 3 2 2 2 2 1 1 1 1 2 2 2
8 9 6 5 5 5 6 5 5 5 2 1 1 2 2 2 2 5 6 7 7 7 7 6 5 4 3 2 3 3 3 3 3 2 2 1 1 1 0 1 1 2 2 2
6 8 5 4 6 5 6 7 6 4 1 3 2 2 5 3 2 5 6 7 7 6 6 5 4 3 3 2 2 2 3 2 2 2 2 3 2 1 2 3 2 2 2 2
7 5 4 6 8 5 6 6 4 3 2 1 2 3 4 1 3 5 7 8 7 7 7 6 5 4 3 3 3 3 2 1 1 1 2 2 1 2 1 1 2 2 2 2
8 6 5 6 7 5 3 3 4 4 4 1 4 3 4 4 6 7 7 8 7 6 6 5 4 4 3 2 2 3 2 1 1 1 1 2 2 1 1 1 1 2 1 1
6 6 4 3 3 4 3 5 4 5 4 4 3 2 5 5 5 7 9 8 6 6 6 6 5 3 2 2 2 2 2 1 1 1 1 1 2 2 2 2 1 1 0 1
2 6 4 3 5 4 3 7 6 3 3 4 3 1 4 3 4 6 8 8 6 6 5 6 5 4 3 3 3 3 2 1 1 1 0 0 1 1 1 1 1 1 1 1
4 5 4 4 3 5 2 2 7 6 1 0 2 1 3 1 4 5 7 7 6 6 6 6 5 4 4 3 3 3 2 2 1 1 1 0 0 1 1 0 1 1 1 1
5 3 5 3 3 1 5 5 5 5 3 2 2 3 4 6 6 6 7 7 5 5 5 5 4 4 3 3 3 3 3 2 2 2 1 1 0 1 1 1 1 0 1 1
4 3 4 2 2 3 2 2 4 4 5 5 3 5 5 9 9 8 7 7 6 5 5 5 4 4 3 3 3 3 2 2 1 1 1 1 0 0 1 1 1 1 1 1
3 4 2 5 5 5 5 6 6 4 3 5 4 5 3 7 8 8 7 6 6 6 5 5 4 4 3 3 2 2 2 2 1 1 1 1 1 1 1 1 1 1 1 0
3 4 1 5 7 5 1 2 4 4 4 4 4 3 0 5 6 6 7 6 5 6 5 4 3 3 3 3 3 3 2 2 2 1 1 1 1 1 1 0 0 1 1 1
4 4 5 6 6 3 2 2 1 4 3 3 5 5 3 5 6 5 6 6 6 6 5 4 3 2 2 2 2 3 2 3 2 2 2 1 0 1 1 0 1 0 0 0
5 2 2 3 3 1 1 2 1 2 6 6 7 7 8 8 8 7 7 6 7 6 5 4 4 3 2 2 2 2 2 2 2 2 1 1 1 1 1 1 0 0 0 1
3 2 1 2 2 2 2 2 1 1 2 4 5 3 4 5 6 7 8 8 7 5 5 5 4 3 2 2 2 2 2 1 2 2 1 0 1 1 0 1 1 1 1 1
2 4 2 2 4 3 2 2 2 2 3 5 4 4 4 6 7 7 7 7 6 5 4 4 3 3 3 3 3 3 2 2 2 1 1 1 1 0 1 1 1 1 1 1
5 4 3 1 2 2 5 1 5 6 5 4 5 5 7 6 5 5 6 7 6 5 4 3 3 2 2 2 2 3 3 3 2 1 1 1 1 1 1 1 1 2 1 1
6 6 3 2 2 3 3 1 2 4 2 2 6 6 5 6 6 3 2 4 4 5 5 4 3 3 2 2 2 3 2 2 1 1 1 1 1 1 0 1 2 2 1 1
4 5 5 3 3 4 4 4 1 6 2 2 5 7 6 6 4 2 2 2 4 4 4 3 3 3 3 1 3 4 2 1 1 1 1 1 1 2 2 2 2 1 1 2
3 3 3 3 3 3 4 3 3 3 5 3 4 7 6 4 4 4 3 3 4 3 3 4 4 3 3 2 3 3 2 3 3 2 2 1 1 2 2 2 2 1 1 1
3 2 1 2 2 5 4 2 3 5 3 4 4 5 5 4 4 5 4 4 4 3 2 3 3 2 2 2 3 3 3 4 3 2 1 2 2 2 1 1 2 1 1 1
2 4 4 5 5 4 2 3 3 4 4 3 4 4 6 6 4 4 4 3 3 3 3 2 2 2 1 1 3 3 4 3 1 1 1 2 2 2 1 1 2 1 1 1
3 1 2 1 1 1 1 2 2 3 4 4 5 6 6 6 5 5 4 3 3 2 2 2 2 1 1 2 1 3 3 1 1 1 1 1 1 2 2 2 1 1 2 2
3 2 1 0 1 2 1 1 1 2 3 4 4 5 6 6 5 4 4 3 3 2 2 2 2 2 2 2 1 1 0 2 1 0 1 2 2 2 2 2 2 2 3 4
2 3 3 4 5 4 4 3 3 3 2 4 4 4 4 6 5 4 3 3 3 3 2 2 2 2 2 1 1 1 1 2 1 1 2 2 2 2 2 2 4 5 4 5
Wind_Direction
261 120 230 234 219 214 226 244 273 272 240 177 197 202 205 193 174 158 159 161 155 157 163 148 142 139 131 136 149 162 164 178 155 143 149 155 187 210 282 267 232 190 174 177
352 256 241 236 245 239 244 265 278 291 281 178 199 229 206 198 188 174 171 164 159 148 141 142 140 133 137 155 164 165 169 174 175 177 179 176 173 191 206 262 275 210 194 197
211 243 239 229 254 260 259 227 224 224 308 352 104 333 259 229 163 156 152 149 149 154 158 158 143 139 143 151 168 163 172 170 174 171 140 105 74 33 50 260 256 232 196 206
237 247 246 246 257 236 252 228 202 195 147 269 173 239 272 208 173 166 158 152 152 152 149 157 150 158 170 169 153 150 156 157 161 155 153 160 159 199 225 218 224 237 216 218
242 221 219 243 250 238 233 223 209 220 189 304 319 141 279 166 187 191 173 162 162 155 155 163 159 162 165 157 153 152 145 133 149 169 178 167 183 219 240 251 240 242 242 230
247 242 213 228 255 256 217 47 24 43 72 354 265 167 249 232 212 189 179 169 161 152 146 145 135 124 123 133 154 153 140 127 119 136 157 165 179 206 200 261 247 256 262 255
284 275 257 229 283 317 76 83 29 4 11 262 291 141 238 236 207 174 165 162 159 150 146 142 133 131 134 139 163 156 142 142 159 152 183 186 181 196 199 224 227 237 317 288
232 279 245 207 191 210 191 141 152 197 226 279 342 212 266 240 151 142 145 147 146 144 151 151 153 163 167 155 150 141 148 165 190 141 152 159 182 199 215 224 201 192 208 227
189 250 256 224 197 153 151 181 170 146 161 341 290 280 303 160 120 124 132 134 144 156 160 158 159 162 159 155 152 144 144 150 162 143 126 148 225 177 178 237 177 191 207 200
165 240 282 271 47 47 160 157 95 115 154 225 240 218 215 195 173 152 144 149 162 160 155 159 161 165 162 160 145 126 128 152 168 174 184 146 175 183 144 94 66 52 55 72
136 164 296 342 175 201 128 111 118 133 155 161 221 262 225 189 172 156 158 160 159 158 156 161 166 171 163 142 133 129 122 112 138 178 185 122 52 176 105 93 72 77 71 72
150 140 247 262 265 199 159 165 152 157 209 164 164 257 249 167 163 151 154 161 156 153 152 156 165 160 142 142 148 151 149 142 174 177 152 160 170 98 87 78 65 93 95 74
108 112 55 341 340 348 44 156 146 138 128 151 158 241 90 133 137 148 151 158 157 143 142 144 141 138 155 164 160 163 177 189 185 144 123 99 83 94 104 120 26 101 98 43
97 109 162 201 230 248 301 318 154 119 146 174 186 180 170 154 150 155 153 155 143 134 140 138 137 148 157 156 154 165 188 188 166 138 138 143 156 148 164 99 44 83 106 64
92 120 211 245 251 215 282 307 311 175 183 177 195 180 192 183 172 160 149 144 130 129 132 134 143 157 161 150 148 155 176 183 162 145 155 207 206 163 115 46 354 330 298 289
82 119 22 318 319 4 353 345 83 108 121 141 138 175 201 168 139 138 143 141 137 143 151 148 146 146 154 168 172 167 170 167 135 135 156 132 127 105 80 291 287 304 295 292
104 124 101 274 300 352 309 268 140 128 109 134 166 201 149 135 143 150 145 140 145 153 156 151 155 165 167 169 163 164 168 143 124 140 143 140 134 119 265 294 345 312 296 295
152 133 138 212 15 228 242 271 112 107 88 103 122 140 151 155 153 142 135 139 147 143 137 150 163 160 161 157 149 147 134 129 134 128 154 180 171 209 260 318 308 289 294 289
157 146 139 137 190 267 297 353 121 129 73 70 116 116 114 107 84 69 105 130 144 152 154 162 169 152 131 128 135 128 131 138 140 159 198 221 189 192 238 282 284 277 275 291
78 109 130 142 167 223 263 302 105 103 79 333 117 125 124 104 113 227 234 131 125 129 141 144 129 106 119 142 126 120 131 132 174 215 221 222 191 190 215 240 250 262 250 263
48 59 122 156 190 252 283 303 60 120 218 220 148 146 147 157 187 193 164 129 129 119 141 140 128 131 161 153 128 140 170 214 225 216 216 223 209 213 226 238 250 262 262 290
146 130 159 145 176 249 299 81 132 202 195 159 156 158 143 133 129 134 129 122 121 111 126 138 131 140 171 148 139 165 223 237 224 205 224 257 269 268 270 265 281 281 261 287
143 175 177 178 205 235 241 172 181 150 146 162 155 149 132 130 141 142 139 141 146 144 154 150 147 154 183 175 161 191 244 245 213 214 260 269 285 298 287 255 276 308 301 274
327 58 102 94 273 261 91 81 129 138 143 146 147 145 141 143 150 147 152 159 161 157 162 153 133 133 239 250 219 225 251 205 151 206 261 273 278 298 310 307 279 261 263 266
281 359 55 120 239 56 21 196 160 134 123 123 131 149 155 148 151 157 169 178 177 169 170 157 152 170 237 256 265 277 187 129 120 296 288 283 271 265 290 306 285 258 248 234
249 187 174 225 227 184 222 227 155 133 147 147 138 135 144 148 153 151 158 166 170 167 173 168 173 187 228 241 256 267 240 158 148 272 290 282 276 272 263 279 307 299 276 277
Height
1492 1498 1502 1498 1495 1496 1497 1501 1501 1496 1488 1492 1495 1496 1494 1493 1493 1494 1496 1497 1498 1499 1501 1501 1501 1501 1501 1501 1501 1501 1500 1500 1499 1498 1498 1498 1498 1499 1499 1499 1499 1498 1498 1497
1497 1499 1489 1487 1488 1491 1493 1499 1499 1494 1487 1490 1495 1496 1493 1492 1492 1493 1494 1496 1497 1498 1499 1500 1500 1500 1500 1500 1500 1500 1499 1498 1497 1497 1496 1496 1497 1497 1497 1497 1497 1496 1496 1495
1497 1489 1482 1485 1488 1490 1492 1496 1495 1495 1490 1489 1494 1501 1496 1492 1492 1493 1494 1496 1497 1498 1498 1499 1498 1499 1499 1499 1499 1498 1498 1497 1496 1495 1495 1495 1495 1495 1494 1494 1494 1493 1493 1493
1490 1483 1482 1484 1485 1486 1493 1483 1484 1488 1497 1505 1499 1516 1502 1495 1494 1494 1494 1495 1496 1497 1497 1498 1497 1498 1498 1498 1498 1497 1496 1495 1494 1493 1493 1492 1492 1492 1492 1492 1491 1491 1491 1491
1486 1480 1481 1484 1480 1478 1482 1477 1481 1485 1494 1504 1500 1511 1508 1497 1497 1495 1493 1494 1495 1495 1496 1497 1497 1497 1497 1496 1496 1495 1494 1493 1492 1492 1491 1491 1490 1490 1490 1489 1489 1489 1489 1488
1477 1473 1475 1475 1472 1472 1473 1478 1484 1491 1501 1514 1504 1510 1512 1500 1493 1492 1492 1493 1493 1494 1495 1496 1496 1496 1495 1495 1494 1493 1492 1491 1491 1490 1490 1489 1489 1488 1488 1487 1487 1486 1486 1486
1482 1475 1471 1470 1475 1473 1476 1494 1512 1515 1522 1518 1500 1505 1506 1491 1487 1487 1489 1491 1492 1493 1494 1494 1495 1495 1494 1493 1492 1492 1491 1490 1489 1489 1488 1488 1487 1486 1486 1485 1485 1484 1484 1483
1491 1489 1472 1468 1472 1477 1479 1490 1513 1522 1525 1518 1504 1507 1500 1486 1485 1486 1487 1489 1492 1493 1493 1493 1493 1493 1492 1492 1491 1490 1490 1488 1488 1487 1487 1486 1486 1485 1484 1484 1483 1482 1482 1481
1488 1485 1466 1463 1464 1469 1479 1487 1488 1504 1510 1519 1512 1504 1494 1487 1487 1487 1488 1490 1491 1492 1492 1492 1492 1492 1492 1491 1490 1489 1488 1487 1487 1486 1486 1485 1484 1484 1483 1483 1482 1481 1481 1480
1474 1482 1470 1464 1463 1465 1470 1477 1492 1504 1517 1523 1513 1508 1504 1493 1490 1488 1489 1490 1490 1491 1491 1492 1492 1492 1491 1490 1489 1488 1488 1486 1485 1485 1485 1484 1484 1483 1483 1482 1481 1481 1480 1479
1468 1482 1477 1470 1471 1474 1474 1479 1488 1500 1504 1517 1521 1512 1486 1485 1485 1486 1487 1488 1489 1490 1491 1491 1491 1491 1490 1489 1488 1487 1487 1486 1485 1485 1484 1484 1483 1483 1482 1482 1481 1480 1479 1478
1468 1480 1486 1475 1463 1460 1465 1473 1483 1499 1501 1504 1512 1509 1480 1481 1482 1483 1485 1487 1488 1489 1490 1490 1490 1489 1488 1488 1487 1486 1486 1485 1485 1485 1484 1484 1483 1483 1482 1481 1481 1480 1478 1477
1467 1481 1493 1489 1481 1469 1466 1467 1474 1484 1495 1502 1510 1504 1482 1482 1483 1483 1485 1486 1487 1488 1489 1489 1488 1487 1487 1486 1486 1485 1485 1484 1485 1484 1484 1484 1483 1482 1482 1481 1480 1479 1478 1476
1462 1478 1489 1494 1487 1475 1472 1468 1469 1480 1495 1497 1495 1493 1486 1484 1484 1484 1485 1486 1486 1487 1487 1487 1487 1486 1486 1485 1484 1484 1484 1483 1483 1483 1483 1483 1482 1482 1481 1480 1480 1478 1477 1476
1465 1477 1475 1474 1469 1467 1469 1468 1468 1474 1478 1487 1485 1485 1483 1481 1481 1482 1484 1486 1486 1486 1487 1487 1486 1486 1485 1484 1484 1484 1483 1483 1483 1482 1482 1482 1482 1481 1481 1480 1479 1478 1476 1475
1467 1475 1475 1475 1468 1466 1468 1466 1467 1469 1471 1475 1479 1483 1477 1478 1479 1481 1482 1484 1485 1486 1486 1486 1485 1485 1484 1484 1483 1483 1482 1482 1482 1482 1481 1481 1481 1481 1480 1479 1478 1477 1476 1474
1470 1475 1482 1484 1472 1470 1479 1470 1468 1470 1471 1474 1482 1481 1478 1479 1479 1481 1482 1483 1484 1485 1486 1485 1485 1484 1484 1483 1483 1482 1482 1481 1481 1481 1481 1481 1480 1480 1479 1478 1477 1476 1475 1474
1469 1476 1484 1486 1482 1491 1480 1464 1464 1469 1472 1471 1474 1476 1476 1477 1479 1480 1481 1482 1483 1484 1484 1484 1484 1484 1483 1483 1483 1482 1482 1481 1481 1480 1480 1480 1480 1479 1478 1478 1476 1475 1474 1473
1460 1470 1482 1489 1490 1485 1473 1466 1466 1471 1477 1473 1473 1475 1477 1478 1480 1483 1483 1483 1483 1483 1483 1483 1483 1483 1483 1483 1482 1482 1481 1481 1480 1480 1480 1479 1479 1478 1477 1476 1475 1474 1473 1471
1461 1465 1477 1485 1489 1492 1479 1466 1463 1468 1482 1475 1473 1475 1477 1478 1485 1485 1483 1482 1482 1482 1483 1483 1483 1482 1482 1482 1482 1481 1481 1481 1480 1480 1479 1479 1478 1477 1476 1475 1474 1473 1472 1470
1472 1474 1480 1485 1488 1483 1472 1466 1464 1480 1483 1475 1474 1474 1476 1477 1480 1481 1481 1482 1482 1482 1482 1482 1482 1482 1482 1482 1481 1481 1481 1480 1480 1479 1479 1478 1477 1476 1475 1474 1473 1472 1470 1469
1476 1480 1483 1486 1490 1488 1468 1467 1472 1475 1470 1471 1473 1473 1474 1475 1477 1479 1480 1480 1481 1481 1481 1482 1481 1481 1481 1481 1481 1480 1479 1479 1479 1478 1478 1477 1476 1475 1474 1473 1471 1470 1469 1467
1473 1474 1476 1479 1481 1472 1468 1467 1468 1468 1469 1470 1471 1472 1473 1474 1476 1478 1479 1480 1481 1480 1481 1481 1481 1480 1480 1480 1480 1479 1478 1478 1477 1477 1476 1475 1474 1473 1473 1471 1470 1469 1467 1466
1470 1468 1472 1474 1471 1468 1467 1467 1467 1468 1468 1469 1470 1471 1473 1474 1476 1477 1479 1479 1480 1480 1480 1480 1480 1479 1479 1479 1478 1478 1477 1476 1476 1475 1474 1474 1473 1472 1471 1470 1469 1467 1466 1464
1470 1469 1472 1473 1470 1468 1467 1467 1467 1468 1468 1468 1470 1471 1472 1474 1475 1477 1478 1478 1479 1479 1479 1479 1479 1478 1478 1478 1477 1477 1476 1475 1474 1473 1473 1472 1471 1470 1469 1468 1467 1466 1464 1463
1468 1469 1472 1473 1468 1467 1467 1466 1467 1468 1468 1468 1469 1471 1472 1473 1474 1476 1477 1477 1478 1478 1478 1478 1478 1477 1477 1476 1475 1475 1474 1473 1472 1471 1470 1470 1469 1468 1467 1466 1465 1463 1462 1461